When you browse on this site, cookies collect data to enhance your experience and personalize the content and advertising you see.
Visit our Privacy Policy to learn more. By continuing to use the site, you agree to this use of cookies and data.
  • In France
  • List of Countries
  • For 7 days
  • Water Temperature
  • Satellite Maps
  • Weather Map
  • Weather Widgets
  • user-avatar
    Login

    Hourly Weather Etchmiadzin

    Today, 19 January, Saturday

    Time Temperature Precipitation Wind Pressure Humidity
    00:00 -1°C° 0 mm 1 mps 689 mmHg 51%
    01:00 -2°C° 0 mm 1 mps 689 mmHg 50%
    02:00 -2°C° 0 mm 1 mps 689 mmHg 50%
    03:00 -2°C° 0 mm 1 mps 688 mmHg 50%
    04:00 -2°C° 0 mm 1 mps 688 mmHg 50%
    05:00 -2°C° 0 mm 1 mps 688 mmHg 50%
    06:00 -3°C° 0 mm 1 mps 688 mmHg 49%
    07:00 -2°C° 0 mm 1 mps 688 mmHg 47%
    08:00 -1°C° 0 mm 1 mps 689 mmHg 45%
    09:00 0°C° 0 mm 1 mps 689 mmHg 42%
    10:00 +1°C° 0 mm 1 mps 688 mmHg 40%
    11:00 +2°C° 0 mm 1 mps 688 mmHg 38%
    12:00 +4°C° 0 mm 1 mps 687 mmHg 36%
    13:00 +4°C° 0 mm 1 mps 687 mmHg 36%
    14:00 +4°C° 0 mm 1 mps 687 mmHg 36%
    15:00 +5°C° 0 mm 1 mps 687 mmHg 36%
    16:00 +3°C° 0 mm 1 mps 687 mmHg 37%
    17:00 +2°C° 0 mm 1 mps 688 mmHg 39%
    18:00 -1°C° 0 mm 2 mps 688 mmHg 40%
    19:00 -2°C° 0 mm 2 mps 688 mmHg 40%
    20:00 -2°C° 0 mm 2 mps 689 mmHg 40%
    21:00 -2°C° 0 mm 2 mps 689 mmHg 40%
    22:00 -3°C° 0 mm 2 mps 689 mmHg 40%
    23:00 -3°C° 0 mm 2 mps 689 mmHg 40%

    Tomorrow, 20 January, Sunday

    Time Temperature Precipitation Wind Pressure Humidity
    00:00 -3°C° 0 mm 2 mps 689 mmHg 40%
    01:00 -1°C° 0 mm 1 mps 689 mmHg 39%
    02:00 -1°C° 0 mm 1 mps 689 mmHg 39%
    03:00 -1°C° 0 mm 1 mps 690 mmHg 39%
    04:00 -1°C° 0 mm 1 mps 689 mmHg 39%
    05:00 -2°C° 0 mm 1 mps 689 mmHg 38%
    06:00 -2°C° 0 mm 1 mps 689 mmHg 38%
    07:00 -1°C° 0 mm 1 mps 690 mmHg 37%
    08:00 0°C° 0 mm 1 mps 690 mmHg 35%
    09:00 +1°C° 0 mm 1 mps 690 mmHg 34%
    10:00 +2°C° 0 mm 1 mps 690 mmHg 32%
    11:00 +3°C° 0 mm 1 mps 690 mmHg 31%
    12:00 +4°C° 0 mm 1 mps 689 mmHg 29%
    13:00 +4°C° 0 mm 1 mps 689 mmHg 29%
    14:00 +4°C° 0 mm 1 mps 689 mmHg 29%
    15:00 +5°C° 0 mm 1 mps 689 mmHg 29%
    16:00 +3°C° 0 mm 1 mps 689 mmHg 31%
    17:00 +2°C° 0 mm 1 mps 689 mmHg 33%
    18:00 +1°C° 0 mm 1 mps 690 mmHg 34%
    19:00 +1°C° 0 mm 1 mps 690 mmHg 35%
    20:00 -2°C° 0 mm 2 mps 690 mmHg 35%
    21:00 -2°C° 0 mm 2 mps 690 mmHg 35%
    22:00 -3°C° 0 mm 2 mps 690 mmHg 36%
    23:00 -1°C° 0 mm 1 mps 690 mmHg 36%

    Day after tomorrow, 21 January, Monday

    Time Temperature Precipitation Wind Pressure Humidity
    00:00 -1°C° 0 mm 1 mps 691 mmHg 36%
    01:00 -1°C° 0 mm 1 mps 691 mmHg 37%
    02:00 -2°C° 0 mm 1 mps 691 mmHg 37%
    03:00 -2°C° 0 mm 1 mps 691 mmHg 38%
    04:00 -2°C° 0 mm 1 mps 690 mmHg 38%
    05:00 -2°C° 0 mm 1 mps 690 mmHg 39%
    06:00 -2°C° 0 mm 1 mps 690 mmHg 39%
    07:00 -1°C° 0 mm 1 mps 690 mmHg 38%
    08:00 -1°C° 0 mm 1 mps 690 mmHg 37%
    09:00 0°C° 0 mm 1 mps 690 mmHg 36%
    10:00 +1°C° 0 mm 1 mps 690 mmHg 34%
    11:00 +2°C° 0 mm 1 mps 689 mmHg 32%
    12:00 +3°C° 0 mm 1 mps 689 mmHg 30%
    13:00 +4°C° 0 mm 1 mps 688 mmHg 30%
    14:00 +4°C° 0 mm 1 mps 688 mmHg 30%
    15:00 +4°C° 0 mm 1 mps 688 mmHg 30%
    16:00 +2°C° 0 mm 2 mps 688 mmHg 31%
    17:00 +1°C° 0 mm 2 mps 688 mmHg 33%
    18:00 -1°C° 0 mm 2 mps 688 mmHg 34%
    19:00 -2°C° 0 mm 2 mps 688 mmHg 35%
    20:00 -2°C° 0 mm 2 mps 688 mmHg 36%
    21:00 -3°C° 0 mm 2 mps 689 mmHg 37%
    22:00 -1°C° 0 mm 1 mps 688 mmHg 38%
    23:00 -1°C° 0 mm 1 mps 688 mmHg 39%

    22 January, Tuesday

    Time Temperature Precipitation Wind Pressure Humidity
    00:00 -1°C° 0 mm 1 mps 688 mmHg 41%
    01:00 -1°C° 0 mm 1 mps 688 mmHg 41%
    02:00 -2°C° 0 mm 1 mps 688 mmHg 42%
    03:00 -2°C° 0 mm 1 mps 688 mmHg 42%
    04:00 -2°C° 0 mm 1 mps 688 mmHg 42%
    05:00 -2°C° 0 mm 1 mps 688 mmHg 42%
    06:00 -4°C° 0 mm 2 mps 688 mmHg 42%
    07:00 -1°C° 0 mm 1 mps 688 mmHg 41%
    08:00 -1°C° 0 mm 1 mps 688 mmHg 39%
    09:00 0°C° 0 mm 1 mps 688 mmHg 38%
    10:00 +1°C° 0 mm 1 mps 688 mmHg 36%
    11:00 +3°C° 0 mm 1 mps 687 mmHg 35%
    12:00 +4°C° 0 mm 1 mps 687 mmHg 33%
    13:00 +4°C° 0 mm 1 mps 686 mmHg 33%
    14:00 +4°C° 0 mm 1 mps 686 mmHg 33%
    15:00 +5°C° 0 mm 1 mps 686 mmHg 34%
    16:00 +4°C° 0 mm 1 mps 686 mmHg 35%
    17:00 +3°C° 0 mm 1 mps 686 mmHg 37%
    18:00 +1°C° 0 mm 1 mps 686 mmHg 39%
    19:00 +1°C° 0 mm 1 mps 687 mmHg 40%
    20:00 +1°C° 0 mm 1 mps 687 mmHg 41%
    21:00 -2°C° 0 mm 2 mps 687 mmHg 41%
    22:00 0°C° 0 mm 1 mps 687 mmHg 42%
    23:00 0°C° 0 mm 1 mps 687 mmHg 43%

    23 January, Wednesday

    Time Temperature Precipitation Wind Pressure Humidity
    00:00 -1°C° 0 mm 1 mps 687 mmHg 43%
    01:00 -1°C° 0 mm 1 mps 687 mmHg 44%
    02:00 -1°C° 0 mm 1 mps 687 mmHg 44%
    03:00 -1°C° 0 mm 1 mps 687 mmHg 45%
    04:00 -1°C° 0 mm 1 mps 687 mmHg 45%
    05:00 -2°C° 0 mm 1 mps 687 mmHg 44%
    06:00 -2°C° 0 mm 1 mps 687 mmHg 44%
    07:00 -1°C° 0 mm 1 mps 687 mmHg 42%
    08:00 -2°C° 0 mm 2 mps 687 mmHg 41%
    09:00 -1°C° 0 mm 2 mps 688 mmHg 39%
    10:00 +1°C° 0 mm 2 mps 687 mmHg 39%
    11:00 +2°C° 0 mm 2 mps 687 mmHg 39%
    12:00 +3°C° 0 mm 2 mps 687 mmHg 40%
    13:00 +3°C° 0 mm 2 mps 687 mmHg 40%
    14:00 +4°C° 0 mm 2 mps 686 mmHg 41%
    15:00 +4°C° 0 mm 2 mps 686 mmHg 41%
    16:00 +3°C° 0 mm 2 mps 687 mmHg 43%
    17:00 +2°C° 0 mm 2 mps 687 mmHg 45%
    18:00 +1°C° 0 mm 2 mps 687 mmHg 48%
    19:00 -1°C° 0 mm 2 mps 688 mmHg 49%
    20:00 -1°C° 0 mm 2 mps 688 mmHg 50%
    21:00 -1°C° 0 mm 2 mps 688 mmHg 51%
    22:00 -2°C° 0 mm 2 mps 688 mmHg 52%
    23:00 -2°C° 0 mm 2 mps 688 mmHg 54%

    24 January, Thursday

    Time Temperature Precipitation Wind Pressure Humidity
    00:00 0°C° 0 mm 1 mps 688 mmHg 55%
    01:00 0°C° 0 mm 1 mps 688 mmHg 56%
    02:00 -2°C° 0 mm 2 mps 688 mmHg 57%
    03:00 -3°C° 0 mm 2 mps 688 mmHg 57%
    04:00 -3°C° 0 mm 2 mps 688 mmHg 57%
    05:00 -3°C° 0 mm 2 mps 688 mmHg 57%
    06:00 -3°C° 0 mm 2 mps 688 mmHg 58%
    07:00 -2°C° 0 mm 2 mps 688 mmHg 55%
    08:00 -1°C° 0 mm 2 mps 688 mmHg 52%
    09:00 +1°C° 0 mm 2 mps 688 mmHg 50%
    10:00 +2°C° 0 mm 2 mps 688 mmHg 48%
    11:00 +3°C° 0 mm 2 mps 687 mmHg 46%
    12:00 +4°C° 0 mm 2 mps 687 mmHg 45%
    13:00 +4°C° 0 mm 2 mps 686 mmHg 44%
    14:00 +4°C° 0 mm 3 mps 686 mmHg 44%
    15:00 +4°C° 0 mm 3 mps 686 mmHg 44%
    16:00 +3°C° 0 mm 3 mps 686 mmHg 47%
    17:00 +2°C° 0 mm 3 mps 686 mmHg 49%
    18:00 +1°C° 0 mm 3 mps 686 mmHg 52%
    19:00 +1°C° 0 mm 3 mps 686 mmHg 54%
    20:00 +2°C° 0 mm 2 mps 686 mmHg 56%
    21:00 +1°C° 0 mm 2 mps 686 mmHg 57%
    22:00 +1°C° 0 mm 2 mps 686 mmHg 59%
    23:00 +1°C° 0 mm 2 mps 686 mmHg 60%
    Show more